Regional Weather Roundup
Issued by NWS

Home | Current Version | Previous Version | Graphics & Text | Print | Product List | Glossary On
Versions: 1 2 3 4 5 6 7 8 9 10 11 12 13 14 15 16 17 18 19 20 21 22 23 24 25 26 27 28 29 30 31 32 33 34 35 36 37 38 39 40 41 42 43 44 45 46 47 48 49 50
000
ASUS43 KLOT 191406
RWRIL

ILLINOIS REGIONAL WEATHER ROUNDUP
NATIONAL WEATHER SERVICE CHICAGO/ROMEOVILLE IL
900 AM CDT FRI SEP 19 2014

NOTE: "FAIR" INDICATES FEW OR NO CLOUDS BELOW 12,000 FEET WITH NO
SIGNIFICANT WEATHER AND/OR OBSTRUCTIONS TO VISIBILITY.

* THESE STATIONS ARE NOT UNDER NWS QUALITY CONTROL. THEY ALSO MAY NOT
  REPORT WEATHER SUCH AS PRECIPITATION OR FOG.

ILZ001-002-007-009-015-016-024-191500-
NORTHWEST ILLINOIS

CITY           SKY/WX    TMP DP  RH WIND       PRES   REMARKS
MOLINE         SUNNY     59  53  80 S5        30.11S
STERLING*      MOSUNNY   57  54  88 S6        30.13S
SAVANNA*       SUNNY     55  54  94 S6        30.12S FOG
$$

ILZ003-004-008-010-011-017-018-191500-
NORTH CENTRAL ILLINOIS

CITY           SKY/WX    TMP DP  RH WIND       PRES   REMARKS
ROCKFORD       PTSUNNY   58  51  78 S13       30.15S
FREEPORT*      MOSUNNY   57  55  92 S8        30.14F
ROCHELLE*      MOSUNNY   57  53  85 S8        30.14S
DE KALB*       SUNNY     56  51  85 S9        30.16S
PERU*          MOSUNNY   58  53  83 S5        30.15S
$$

ILZ005-006-012>014-019>023-191500-
NORTHEAST ILLINOIS

CITY           SKY/WX    TMP DP  RH WIND       PRES   REMARKS
CHICAGO-OHARE  MOSUNNY   60  52  74 S7        30.16R
CHICAGO-MIDWAY MOSUNNY   62  51  67 S8        30.17R
AURORA         SUNNY     59  52  77 S12       30.16R
LANSING*       SUNNY     58  51  77 S8        30.18R
JOLIET*        SUNNY     58  51  77 SE6       30.17R
WAUKEGAN       SUNNY     60  53  77 SE8       30.16R
DUPAGE AIRPORT SUNNY     60  52  74 S9        30.16R
KANKAKEE*      SUNNY     58  53  84 SE8       30.18R
WHEELING       SUNNY     61  53  75 S8        30.18R
MORRIS*        SUNNY     60  56  87 S5        30.16R
ROMEOVILLE*    SUNNY     58  52  80 S9        30.17R
NORTHERLY ISL    N/A     61  50  67 SE7         N/A
$$

LMZ740>746-191500-
SOUTHERN LAKE MICHIGAN

STATION/POSITION SKY/WX   TEMP    WIND        PRES    VSBY  WAVE
                          AIR SEA DIR/SP/G                  HT/PER
                          (F)     (DEG/KT/KT) (MB)    (MI)  (FT/S)
SOUTHERN BUOY              62 64  160/ 17/ 19 1021.8R         4/ 5
WAUKEGAN HARBOR            63     180/  7/  8   N/A
HARRISON CRIB              59     160/ 17/ 21   N/A
BURNHAM HARBOR             62     130/  6/ 12   N/A
CALUMET HARBOR             60     170/  6/ 10 1020.5R
MICHIGAN CITY              58     120/ 13/ 16   N/A
MICHIGAN CITY 6N           59 65  140/ 14/ 16   N/A           2/ 2
ST. JOSEPH                 59 65  130/ 16/ 17   N/A           2/ 2
$$

ILZ025>027-034>036-040-047-049-050-058-095>099-191500-
WEST-CENTRAL ILLINOIS

CITY           SKY/WX    TMP DP  RH WIND       PRES   REMARKS
QUINCY         SUNNY     61  54  77 SE9       30.10S
GALESBURG*     SUNNY     59  54  83 SE3       30.12S
MACOMB*        SUNNY     56  53  87 SE6       30.13F
JACKSONVILLE*  SUNNY     62  55  76 SE7       30.13R
PITTSFIELD*    SUNNY     61  55  81 SE3       30.13R
$$

ILZ028>032-037-038-041>044-048-051>054-059>061-191500-
CENTRAL ILLINOIS

CITY           SKY/WX    TMP DP  RH WIND       PRES   REMARKS
PONTIAC        SUNNY     59  54  82 SE6       30.15S
DECATUR        SUNNY     61  51  70 SE10      30.15S
PEORIA         SUNNY     60  51  72 SE3       30.14R
LACON*         MOSUNNY   58  52  80 CALM      30.13S
LINCOLN*       SUNNY     61  53  74 SE8       30.13S
SPRINGFIELD    SUNNY     61  52  72 SE6       30.13F
TAYLORVILLE    SUNNY     59  52  77 SE8       30.13F
$$

ILZ033-039-045-046-055>057-062-063-191500-
EAST-CENTRAL ILLINOIS

CITY           SKY/WX    TMP DP  RH WIND       PRES   REMARKS
CHAMPAIGN      SUNNY     60  52  74 E10       30.16S
DANVILLE*      SUNNY     59  51  74 SE7       30.15S
RANTOUL*       SUNNY     61  51  70 SE8       30.17S
MATTOON        SUNNY     61  51  70 SE9       30.15R
PARIS*         SUNNY     59  54  82 CALM      30.17S
$$

ILZ079-100>102-191500-
SOUTHWEST ILLINOIS

CITY           SKY/WX    TMP DP  RH WIND       PRES   REMARKS
ALTON          MOSUNNY   59  55  88 SE12      30.11S
BELLEVILLE     SUNNY     61  56  83 NE5       30.10S
CAHOKIA*       SUNNY     61  56  83 CALM      30.11R
SPARTA*        SUNNY     61  56  84 E5        30.11S
$$

ILZ064>066-069>071-074>076-080>082-084>086-088>090-092>094-191500-
SOUTH-CENTRAL ILLINOIS

CITY           SKY/WX    TMP DP  RH WIND       PRES   REMARKS
CARBONDALE     SUNNY     59  55  87 VRB3      30.10S
CAIRO*         SUNNY     66  59  78 E5        30.08R
EFFINGHAM*     SUNNY     60  51  70 E7        30.14S
MARION         SUNNY     63  57  82 E7        30.10S
MT. VERNON     SUNNY     63  52  67 E6        30.12S
CENTRALIA*     SUNNY     61  54  76 E3        30.12R
SALEM*         SUNNY     62  55  77 E3        30.13R
METROPOLIS*    SUNNY     65  58  78 CALM      30.08S
$$

ILZ067-068-072-073-078-083-087-091-191500-
SOUTHEAST ILLINOIS

CITY           SKY/WX    TMP DP  RH WIND       PRES   REMARKS
LAWRENCEVILLE  SUNNY     62  54  74 E8        30.15R
FLORA*         SUNNY     60  52  75 E6        30.13S
FAIRFIELD*     SUNNY    N/A N/A N/A E7        30.12R
HARRISBURG*    SUNNY     63  56  78 E7        30.12R
ROBINSON*      SUNNY     61  56  83 SE5       30.16S
CARMI*         SUNNY     64  57  78 NE6       30.11S
$$

ABBREVIATIONS USED IN REMARKS
   TC - TEMPERATURE IN CELSIUS
  WCI - WIND CHILL INDEX
   HX - HEAT INDEX
  VSB - VISIBILITY
$$



USA.gov is the U.S. government's official web portal to all federal, state and local government web resources and services.